Location: Corcelles
(46.1547°N, 4.7234°E)
Time: 08:51:39
(UTC+00:00)

Meteor 1-23 Rocket - Pass Details

Date: 14 July 2020
Orbit: 838 x 887 km, 81.3° (Epoch: 14 August)

Event Time Altitude Azimuth Distance (km) Brightness Sun altitude
Rises 02:25:34 0° 347° (NNW) 3,462 8.0 -13.3°
Reaches altitude 10° 02:28:00 10° 346° (NNW) 2,527 7.2 -13.1°
Maximum altitude 02:33:44 77° 263° (W) 906 4.2 -12.4°
Drops below altitude 10° 02:39:30 10° 177° (S) 2,536 6.3 -11.8°
Enters shadow 02:40:48 - 177° (S) 3,030 6.7 -11.6°
